EW3845 Weather Reports


time (UTC)temp
C
wind
direction
speed
KPH
gust
KPH
rain 1hr
cm
rain 24hr
cm
rain mn
cm
humidity
%
barometer
mb
20260906064516 12 229 0.0 0.0 0.00 0.00 0.00 92 1026.3
20260906063021 11 230 0.0 0.0 0.00 0.00 0.00 93 1026.2
20260906061514 11 313 0.0 0.0 0.00 0.00 0.00 93 1026.2
20260906060014 11 315 0.0 0.0 0.00 0.00 0.00 92 1026.1
20260906054510 10 360 0.0 0.0 0.00 0.00 0.00 92 1026.1
20260906053009 10 360 0.0 0.0 0.00 0.00 0.00 92 1026.2
20260906051510 10 360 0.0 0.0 0.00 0.00 0.00 92 1026.4
20260906050008 10 360 0.0 0.0 0.00 0.00 0.00 92 1026.4
20260906044506 10 360 0.0 0.0 0.00 0.00 0.00 92 1026.4
20260906043006 10 360 0.0 0.0 0.00 0.00 0.00 91 1026.3
20260906041507 11 360 0.0 0.0 0.00 0.00 0.00 92 1026.2
20260906040014 10 360 0.0 0.0 0.00 0.00 0.00 91 1026.1
20260906034504 10 360 0.0 0.0 0.00 0.00 0.00 91 1025.9
20260906033004 10 360 0.0 0.0 0.00 0.00 0.00 91 1026.1
20260906031502 11 360 0.0 0.0 0.00 0.00 0.00 91 1026.7
20260906030001 11 360 0.0 0.0 0.00 0.00 0.00 90 1026.7
20260906024559 11 360 0.0 0.0 0.00 0.00 0.00 90 1026.4
20260906023059 11 360 0.0 0.0 0.00 0.00 0.00 90 1026.3
20260906021603 11 360 0.0 0.0 0.00 0.00 0.00 90 1026.3
20260906020105 11 360 0.0 0.0 0.00 0.00 0.00 89 1026.1
20260906014556 11 360 0.0 0.0 0.00 0.00 0.00 89 1026.4
20260906013104 11 360 0.0 0.0 0.00 0.00 0.00 89 1026.3
20260906011554 11 360 0.0 0.0 0.00 0.00 0.00 89 1026.2
20260906010054 11 360 0.0 0.0 0.00 0.00 0.00 89 1025.9
20260906004552 11 360 0.0 0.0 0.00 0.00 0.00 88 1026.0
20260906003051 11 360 0.0 0.0 0.00 0.00 0.00 88 1026.1
20260906001550 11 360 0.0 0.0 0.00 0.00 0.00 88 1026.1
20260906000100 11 360 0.0 0.0 0.00 0.00 0.00 88 1026.2
20260905234556 11 360 0.0 0.0 0.00 0.00 0.00 87 1026.2
20260905233047 12 360 0.0 0.0 0.00 0.00 0.00 87 1026.2
20260905231545 12 360 0.0 0.0 0.00 0.00 0.00 87 1026.0
20260905230044 12 360 0.0 0.0 0.00 0.00 0.00 86 1026.0
20260905224542 12 360 0.0 0.0 0.00 0.00 0.00 86 1026.0
20260905223045 12 360 0.0 0.0 0.00 0.00 0.00 85 1025.9
20260905221538 12 360 0.0 0.0 0.00 0.00 0.00 84 1025.7
20260905220038 12 360 0.0 0.0 0.00 0.00 0.00 84 1025.7
20260905214533 13 360 0.0 0.0 0.00 0.00 0.00 83 1025.7
20260905213031 13 360 0.0 0.0 0.00 0.00 0.00 83 1025.5
20260905211529 13 360 0.0 0.0 0.00 0.00 0.00 82 1025.4
20260905210043 13 360 0.0 0.0 0.00 0.00 0.00 81 1025.3
20260905204534 14 360 0.0 0.0 0.00 0.00 0.00 80 1025.2
20260905203023 14 360 0.0 0.0 0.00 0.00 0.00 79 1025.0
20260905201521 14 360 0.0 0.0 0.00 0.00 0.00 79 1025.1
20260905200024 15 360 0.0 0.0 0.00 0.00 0.00 77 1025.0
20260905194518 15 360 0.0 0.0 0.00 0.00 0.00 76 1024.8
20260905193019 16 360 0.0 0.0 0.00 0.00 0.00 75 1024.8
20260905191520 16 360 0.0 0.0 0.00 0.00 0.00 73 1024.7
20260905190019 17 360 0.0 0.0 0.00 0.00 0.00 73 1024.6
20260905184519 17 360 0.0 0.0 0.00 0.00 0.00 71 1024.5
20260905183014 17 360 0.0 0.0 0.00 0.00 0.00 70 1024.3
20260905181516 18 360 0.0 0.0 0.00 0.00 0.00 70 1024.1
20260905180009 18 360 0.0 0.0 0.00 0.00 0.00 70 1023.9
20260905174518 18 360 0.0 0.0 0.00 0.00 0.00 69 1023.9
20260905173007 19 360 0.0 0.0 0.00 0.00 0.00 67 1023.7
20260905171505 19 360 0.0 0.0 0.00 0.00 0.00 65 1023.4
20260905170005 20 258 0.0 0.0 0.00 0.05 0.00 64 1023.4
20260905164503 20 360 0.0 0.0 0.00 0.05 0.00 63 1023.2
20260905163001 20 360 0.0 0.0 0.00 0.05 0.00 63 1023.1
20260905161559 20 360 0.0 0.0 0.00 0.05 0.00 62 1022.8
20260905160109 21 238 0.0 0.0 0.00 0.28 0.00 65 1022.8
20260905154630 21 360 0.0 0.0 0.00 0.28 0.00 63 1022.6
20260905153056 21 360 0.0 0.0 0.00 0.28 0.00 62 1022.5
20260905151555 21 294 0.0 0.0 0.00 0.28 0.00 61 1022.3
20260905144551 21 360 0.0 0.0 0.00 0.28 0.00 63 1022.1
20260905143059 20 360 0.0 0.0 0.00 0.28 0.00 64 1022.1
20260905141548 20 360 0.0 0.0 0.00 0.28 0.00 67 1022.0
20260905140048 20 289 0.0 0.0 0.00 0.28 0.00 66 1021.8
20260905134546 21 360 0.0 0.0 0.00 0.28 0.00 67 1021.8
20260905133046 21 360 0.0 0.0 0.00 0.28 0.00 68 1021.8
20260905131545 21 360 0.0 0.0 0.00 0.28 0.00 67 1021.8
20260905130048 21 291 0.0 0.0 0.00 0.28 0.00 67 1021.8
20260905124542 21 360 0.0 0.0 0.00 0.28 0.00 69 1021.7
20260905123042 21 360 0.0 0.0 0.00 0.28 0.00 67 1021.6
20260905121540 21 298 0.0 0.0 0.00 0.28 0.00 69 1021.5
20260905120048 20 304 0.0 0.0 0.00 0.28 0.00 69 1021.4
20260905114537 20 360 0.0 0.0 0.00 0.28 0.00 72 1021.2
20260905113035 20 360 0.0 0.0 0.00 0.28 0.00 72 1021.4
20260905111538 20 297 0.0 0.0 0.00 0.28 0.00 72 1021.2
20260905110033 20 284 0.0 0.0 0.00 0.28 0.00 71 1021.2
20260905104530 20 296 0.0 0.0 0.00 0.28 0.00 73 1021.1
20260905103029 20 360 0.0 0.0 0.00 0.28 0.00 73 1021.1
20260905101526 19 289 0.0 0.0 0.00 0.28 0.00 77 1020.9
20260905100024 19 306 0.0 0.0 0.00 0.28 0.00 78 1020.9
20260905094537 18 287 0.0 0.0 0.00 0.28 0.00 81 1020.7
20260905093020 18 360 0.0 0.0 0.00 0.28 0.00 80 1020.7
20260905091517 18 261 0.0 0.0 0.00 0.28 0.00 82 1020.6
20260905090016 18 302 0.0 0.0 0.00 0.28 0.00 84 1020.3
20260905084510 17 360 0.0 0.0 0.00 0.28 0.00 85 1020.3
20260905083007 17 293 0.0 0.0 0.00 0.28 0.00 87 1020.1
20260905081505 17 296 0.0 0.0 0.00 0.28 0.00 88 1020.0
20260905080005 16 360 0.0 0.0 0.00 0.28 0.00 89 1019.8
20260905074606 16 292 0.0 0.0 0.00 0.28 0.00 90 1019.8
20260905073110 16 286 0.0 0.0 0.00 0.28 0.00 91 1019.6
20260905071557 16 360 0.0 0.0 0.00 0.28 0.00 91 1019.4
20260905070056 15 360 0.0 0.0 0.00 0.28 0.00 92 1019.1